Lafayette, CO

3:18 PM MDT on July 25, 2016 (GMT -0600)
Erie Municipal Airport

Weather History for KEIK - December, 2012

Change the Weather History Date:

Tuesday, December 11, 2012

  Actual Average (KBDU) Record (KBDU)
Temperature  
Mean Temperature 25 °F -  
Max Temperature 43 °F - 60 °F (2014)
Min Temperature 7 °F - 15 °F (2013)
Degree Days  
Heating Degree Days 40    
Month to date heating degree days  
Cooling Degree Days 0    
Month to date cooling degree days  
Moisture  
Dew Point 14 °F    
Average Humidity 64    
Maximum Humidity 97    
Minimum Humidity 25    
Precipitation  
Precipitation 0.00 in - 0.00 in (2016)
Sea Level Pressure  
Sea Level Pressure 29.86 in    
Wind  
Wind Speed 3 mph (SSW)    
Max Wind Speed 13 mph    
Max Gust Speed 18 mph    
Visibility 10 miles    
Events Snow    
T = Trace of Precipitation, MM = Missing Value Source: NWS Daily Summary

Daily Weather History Graph

Daily Weather History Graph

Search for Another Location

Airport or City:

Trip Planner

Search our weather history database for the weather conditions in past years. The results will help you decide how hot, cold, wet, or windy it might be!

Date:

Astronomy

Dec. 11, 2012 Rise Set
Actual Time 7:12 AM MST 4:35 PM MST
Civil Twilight 6:41 AM MST 5:05 PM MST
Nautical Twilight 6:07 AM MST 5:39 PM MST
Astronomical Twilight 5:35 AM MST 6:12 PM MST
Moon 5:10 AM MST (12/11) 3:16 PM MST (12/11)
Length of Visible Light 10h 23m
Length of Day
9h 22m
Waning Crescent, 4% of the Moon is Illuminated
Dec 11
Waning Crescent
Dec 13
New
Dec 19
First Quarter
Dec 28
Full
Jan 4
Last Quarter

Hourly Weather History & Observations

Time (MST) Temp. Windchill Dew Point Humidity Pressure Visibility Wind Dir Wind Speed Gust Speed Precip Events Conditions
12:14 AM 25.3 °F 18.5 °F 23.9 °F 94% 29.99 in 2.5 mi SE 5.8 mph - N/A Snow Light Snow
12:34 AM 24.8 °F - 23.0 °F 93% 29.99 in 7.0 mi Calm Calm - N/A Snow Light Snow
12:54 AM 24.4 °F - 22.8 °F 94% 29.98 in 10.0 mi Calm Calm - N/A   Overcast
1:14 AM 24.3 °F 17.3 °F 22.5 °F 93% 29.98 in 10.0 mi South 5.8 mph - N/A   Overcast
1:34 AM 23.9 °F 18.0 °F 21.9 °F 92% 29.98 in 10.0 mi South 4.6 mph - N/A   Overcast
1:54 AM 22.8 °F 15.5 °F 20.8 °F 92% 29.97 in 10.0 mi South 5.8 mph - N/A   Overcast
2:14 AM 20.7 °F - 18.9 °F 93% 29.98 in 10.0 mi Calm Calm - N/A   Scattered Clouds
2:34 AM 20.8 °F - 19.4 °F 94% 29.98 in 10.0 mi Calm Calm - N/A   Mostly Cloudy
2:54 AM 19.8 °F - 18.3 °F 94% 29.98 in 10.0 mi Calm Calm - N/A   Mostly Cloudy
3:14 AM 18.3 °F - 16.9 °F 94% 29.97 in 10.0 mi Calm Calm - N/A   Overcast
3:34 AM 17.1 °F - 15.6 °F 94% 29.98 in 10.0 mi Calm Calm - N/A   Overcast
3:54 AM 17.4 °F - 16.0 °F 94% 29.96 in 10.0 mi Calm Calm - N/A   Scattered Clouds
4:14 AM 16.5 °F - 15.3 °F 95% 29.96 in 10.0 mi Calm Calm - N/A   Clear
4:34 AM 14.0 °F 6.5 °F 12.9 °F 95% 29.95 in 10.0 mi SSW 4.6 mph - N/A   Clear
4:54 AM 12.7 °F - 11.1 °F 93% 29.96 in 10.0 mi Calm Calm - N/A   Clear
5:14 AM 12.7 °F 6.7 °F 11.5 °F 95% 29.95 in 10.0 mi SW 3.5 mph - N/A   Scattered Clouds
5:34 AM 10.8 °F - 9.3 °F 94% 29.94 in 10.0 mi Calm Calm - N/A   Clear
5:54 AM 12.7 °F - 11.3 °F 94% 29.94 in 10.0 mi Calm Calm - N/A   Clear
6:14 AM 13.1 °F 7.1 °F 11.5 °F 93% 29.94 in 10.0 mi SSW 3.5 mph - N/A   Scattered Clouds
6:34 AM 13.1 °F - 11.5 °F 93% 29.94 in 10.0 mi Calm Calm - N/A   Scattered Clouds
6:54 AM 11.5 °F - 9.5 °F 92% 29.94 in 10.0 mi Calm Calm - N/A   Scattered Clouds
7:14 AM 11.3 °F - 10.0 °F 95% 29.94 in 7.0 mi Calm Calm - N/A   Clear
7:34 AM 10.2 °F - 8.6 °F 93% 29.94 in 10.0 mi Calm Calm - N/A   Clear
7:54 AM 7.9 °F - 6.1 °F 92% 29.94 in 10.0 mi Calm Calm - N/A   Clear
8:14 AM 12.4 °F - 10.9 °F 94% 29.94 in 7.0 mi Calm Calm - N/A   Clear
8:34 AM 16.9 °F - 16.0 °F 96% 29.94 in 5.0 mi Calm Calm - N/A   Clear
8:54 AM 19.6 °F - 18.9 °F 97% 29.94 in 7.0 mi Calm Calm - N/A   Clear
9:14 AM 21.7 °F - 21.0 °F 97% 29.94 in 7.0 mi Calm Calm - N/A   Clear
9:34 AM 23.5 °F - 22.1 °F 94% 29.94 in 10.0 mi Calm Calm - N/A   Clear
9:54 AM 27.5 °F - 22.5 °F 81% 29.93 in 10.0 mi Calm Calm - N/A   Clear
10:14 AM 28.9 °F 23.9 °F 21.7 °F 74% 29.92 in 10.0 mi South 4.6 mph - N/A   Clear
10:34 AM 32.0 °F 27.5 °F 19.2 °F 59% 29.91 in 10.0 mi South 4.6 mph - N/A   Clear
10:54 AM 33.6 °F 26.8 °F 19.2 °F 56% 29.90 in 10.0 mi South 8.1 mph - N/A   Clear
11:14 AM 34.5 °F 29.4 °F 19.2 °F 54% 29.89 in 10.0 mi SSE 5.8 mph - N/A   Clear
11:34 AM 36.0 °F 28.5 °F 18.5 °F 49% 29.87 in 10.0 mi South 10.4 mph - N/A   Clear
11:54 AM 37.6 °F 30.5 °F 17.8 °F 45% 29.85 in 10.0 mi SSE 10.4 mph - N/A   Clear
12:14 PM 37.6 °F 30.5 °F 15.6 °F 41% 29.84 in 10.0 mi SSE 10.4 mph 16.1 mph N/A   Clear
12:34 PM 38.3 °F 30.5 °F 14.2 °F 37% 29.82 in 10.0 mi SSE 12.7 mph - N/A   Clear
12:54 PM 39.9 °F 33.4 °F 12.6 °F 33% 29.82 in 10.0 mi SSE 10.4 mph - N/A   Clear
1:14 PM 41.2 °F 35.0 °F 13.3 °F 32% 29.80 in 10.0 mi SE 10.4 mph - N/A   Clear
1:34 PM 41.9 °F 35.9 °F 12.2 °F 30% 29.79 in 10.0 mi SE 10.4 mph - N/A   Clear
1:54 PM 42.4 °F 37.5 °F 10.0 °F 27% 29.79 in 10.0 mi SSW 8.1 mph - N/A   Clear
2:14 PM 43.2 °F - 9.5 °F 25% 29.77 in 10.0 mi Calm Calm - N/A   Clear
2:34 PM 43.7 °F 40.3 °F 9.9 °F 25% 29.77 in 10.0 mi SW 5.8 mph - N/A   Clear
2:54 PM 43.7 °F 42.1 °F 10.2 °F 26% 29.77 in 10.0 mi SW 3.5 mph - N/A   Clear
3:14 PM 43.5 °F 40.1 °F 10.8 °F 26% 29.77 in 10.0 mi SSW 5.8 mph - N/A   Clear
3:34 PM 42.8 °F 39.3 °F 9.1 °F 25% 29.77 in 10.0 mi South 5.8 mph - N/A   Clear
3:54 PM 40.8 °F 35.0 °F 9.1 °F 27% 29.77 in 10.0 mi WSW 9.2 mph 16.1 mph N/A   Clear
4:14 PM 39.6 °F 34.0 °F 9.7 °F 29% 29.76 in 10.0 mi WSW 8.1 mph - N/A   Clear
4:34 PM 38.3 °F 34.8 °F 10.2 °F 31% 29.77 in 10.0 mi WSW 4.6 mph - N/A   Clear
4:54 PM 34.2 °F 29.0 °F 13.3 °F 42% 29.77 in 10.0 mi South 5.8 mph - N/A   Clear
5:14 PM 34.9 °F 29.9 °F 11.8 °F 39% 29.76 in 10.0 mi SSW 5.8 mph - N/A   Clear
5:34 PM 31.8 °F 26.2 °F 13.5 °F 47% 29.76 in 10.0 mi SSE 5.8 mph - N/A   Clear
5:54 PM 32.5 °F 29.3 °F 12.9 °F 44% 29.76 in 10.0 mi SSW 3.5 mph - N/A   Clear
6:14 PM 30.2 °F - 13.1 °F 49% 29.77 in 10.0 mi Calm Calm - N/A   Clear
6:34 PM 28.2 °F - 13.1 °F 53% 29.77 in 10.0 mi Calm Calm - N/A   Clear
6:54 PM 27.3 °F - 13.5 °F 56% 29.77 in 10.0 mi Calm Calm - N/A   Clear
7:14 PM 25.3 °F - 13.3 °F 60% 29.77 in 10.0 mi Calm Calm - N/A   Clear
7:34 PM 25.0 °F - 14.5 °F 65% 29.78 in 10.0 mi Calm Calm - N/A   Clear
7:54 PM 21.4 °F - 14.2 °F 74% 29.78 in 10.0 mi Calm Calm - N/A   Clear
8:14 PM 24.1 °F 19.7 °F 14.7 °F 68% 29.80 in 10.0 mi SW 3.5 mph - N/A   Clear
8:34 PM 26.1 °F 21.9 °F 14.5 °F 62% 29.80 in 10.0 mi NNE 3.5 mph - N/A   Clear
8:54 PM 27.0 °F 21.6 °F 16.2 °F 64% 29.79 in 10.0 mi SSW 4.6 mph - N/A   Clear
9:14 PM 29.8 °F - 14.9 °F 54% 29.79 in 10.0 mi Calm Calm - N/A   Clear
9:34 PM 36.9 °F 29.6 °F 13.6 °F 39% 29.79 in 10.0 mi WNW 10.4 mph - N/A   Clear
9:54 PM 38.5 °F 31.1 °F 12.0 °F 34% 29.77 in 10.0 mi WSW 11.5 mph 18.4 mph N/A   Clear
10:14 PM 39.4 °F 35.2 °F 11.1 °F 31% 29.77 in 10.0 mi WNW 5.8 mph - N/A   Clear
10:34 PM 36.5 °F 30.3 °F 12.6 °F 37% 29.79 in 10.0 mi SSW 8.1 mph - N/A   Clear
10:54 PM 32.9 °F 24.7 °F 13.1 °F 44% 29.77 in 10.0 mi SSW 10.4 mph - N/A   Clear
11:14 PM 35.6 °F 28.0 °F 11.7 °F 37% 29.77 in 10.0 mi SW 10.4 mph - N/A   Clear
11:34 PM 34.7 °F 28.1 °F 12.4 °F 40% 29.76 in 10.0 mi SSE 8.1 mph - N/A   Scattered Clouds
11:54 PM 35.1 °F 27.4 °F 12.0 °F 39% 29.76 in 10.0 mi SE 10.4 mph - N/A   Clear